{"data":{"norad_id":67268,"epoch":"2026-05-25T03:43:58.509984Z","epoch_age_seconds":58649,"freshness":"FRESH","line1":"1 67268U 25313W   26145.15553831  .00006933  00000+0  30309-3 0  9990","line2":"2 67268  97.3951 220.1271 0016486  87.3885 272.9238 15.22277501 22441","mean_motion":15.22277501,"eccentricity":0.0016486,"inclination_deg":97.3951,"raan_deg":220.1271,"arg_perigee_deg":87.3885,"mean_anomaly_deg":272.9238,"bstar":0.00030309,"rev_number":2244,"period_min":94.595104969629,"perigee_km":487.63515288568,"apogee_km":510.31035917326,"semimajor_km":6877.1097560295,"source":"CELESTRAK","updated_at":"2026-05-25T13:38:06.849585Z"}}